KVNYKSMO

Guest
Details From KVNY - Van Nuys
To KSMO - SANTA MONICA MUNI
Flight Number -
Tags generated
Created
Modified
Stats Distance 13 nm / 23 km
Max Altitude 0 ft / 0 m
Waypoints 3
Social Downloads 0
Likes 0
Share VATSIM

Download

Looking for another format? Having issues loading an existing format? Contact us
Advertisement - Login to hide

Notes

Basic altitude profile: - Ascent Rate: 500ft/min - Ascent Speed: 100kts - Cruise Altitude: 2500ft - Cruise Speed: 120kts - Descent Rate: 500ft/min - Descent Speed: 90kts Options: - Use NATs: no - Use PACOTS: no - Use low airways: yes - Use high airways: no

Route

KVNY SMO KSMO

ID Type Via Altitude Latitude Longitude Leg Dist Tot Dist Heading (true) Name
O KVNY APT - 0 ft / 0 m 34.21072˚ -118.48984˚ - 0 nm - Van Nuys
SMO VOR - 0 ft / 0 m 34.01025˚ -118.45672˚ 12 nm 12 nm 172° / 172° SANTA MONICA VOR-DME
O KSMO APT - 0 ft / 0 m 34.01585˚ -118.45133˚ 0 nm 12 nm 39° / 39° SANTA MONICA MUNI

Altitude Profile

Advertisement - Login to hide

KVNY

Details ICAO KVNY (VNY)
Name Van Nuys
Region United States
Timezone America/Los_Angeles (UTC-7.0)
Stats Elevation 802 ft / 244 m (AMSL)
Location 34.210723° -118.489841°
Runways 2
Magnetic Variation 12.035° E

METAR

KVNY 261851Z 14010KT 10SM BKN040 OVC050 19/10 A2998 RMK AO2 SLP148 T01940100

Decode

TAF

KVNY 261721Z 2618/2718 15005KT P6SM SCT025 FM262000 16014KT P6SM BKN035 FM270200 12006KT P6SM SKC FM271100 12006KT P6SM BKN010 FM271600 15006KT P6SM SKC

Decode

Departure Runways

ID Width Length Bearing (true) Bearing (mag) Surface Threshold Offset Overrun Length
16L 75 ft / 23 m 4,021 ft / 1,226 m 175.53° 163.49° Asphalt 1,430 ft / 436 m 0 ft / 0 m
16R 151 ft / 46 m 8,022 ft / 2,445 m 175.54° 163.50° Asphalt 1,430 ft / 436 m 151 ft / 46 m
34L 151 ft / 46 m 8,022 ft / 2,445 m 355.54° 343.50° Asphalt 0 ft / 0 m 151 ft / 46 m
34R 75 ft / 23 m 4,021 ft / 1,226 m 355.53° 343.49° Asphalt 0 ft / 0 m 0 ft / 0 m

KSMO

Details ICAO KSMO (SMO)
Name SANTA MONICA MUNI
Region United States
Timezone America/Los_Angeles (UTC-7.0)
Stats Elevation 177 ft / 54 m (AMSL)
Location 34.015847° -118.451329°
Runways 1
Magnetic Variation 11.990° E

METAR

KSMO 261851Z 20009KT 10SM CLR 18/10 A3002 RMK AO2 SLP164 T01830100

Decode

TAF

TAF KSMO 261721Z 2618/2718 23008KT P6SM SCT025 FM262000 24012KT P6SM SCT025 FM270300 VRB04KT P6SM SKC FM270900 VRB03KT P6SM BKN015 FM271700 VRB04KT P6SM SCT020

Decode

Destination Runways

ID Width Length Bearing (true) Bearing (mag) Surface Threshold Offset Overrun Length
03 151 ft / 46 m 4,978 ft / 1,517 m 44.45° 32.46° Asphalt 0 ft / 0 m 0 ft / 0 m
21 151 ft / 46 m 4,978 ft / 1,517 m 224.46° 212.47° Asphalt 0 ft / 0 m 0 ft / 0 m

Popular Alternatives